Warning: Javascript must be enabled to use all the features on this page!


Page Loading - Please Wait...

* We've detected you're using a mobile device. Find our Next Generation Station Page here.
Click to hideNews Bulletins

Peak Streamflow for Idaho

Click to hide state-specific text

USGS 13046000 HENRYS FORK NR ASHTON ID

Fremont County, Idaho
Hydrologic Unit Code 17040203
Latitude  44°04'11", Longitude 111°30'38" NAD83
Drainage area 1,097  square miles
Gage datum 5,090 feet above NGVD29
Output formats
Table
Graph
Tab-separated file
peakfq (watstore) format
Reselect output format
Water
Year
Date Gage
Height
(feet)
Stream-
flow
(cfs)
1890 1890-05-08   6,0001
1891 1891-05-06   2,9101
1903 1903-05-08   3,9701
1904 1904-05-20   5,3701
1905 1905-04-24   2,2801
1906 1906-04-29   3,0301
1907 1907-05-12   3,7501
1908 1908-06-06   4,0001
1909 1909-05-29   4,2501
1920 1920-05-16   5,1301
1921 1921-05-05 2.213 4,140
1922 1922-05-08 2.313 4,370
1923 1923-05-07 1.913 3,7605
1924 1924-05-03 1.233 2,2205
1925 1925-05-07 3.113 6,2205
1926 1926-04-21 1.993 3,5605
1927 1927-05-17 2.793 5,2205
1928 1928-05-11 2.013 3,4405
1929 1929-05-17   3,2301,5
1930 1930-04-11 1.603 2,8805
1931 1931-04-20 6.343 1,6301,5
1932 1932-05-12 7.503 4,0601,5
1933 1933-05-18 6.883 2,7601,5
1934 1934-04-09 6.353 1,7405
1935 1935-05-11 6.783 2,4501,5
1936 1936-05-01 7.083 3,1701,6
1937 1937-05-09 6.963 2,9201,6
1938 1938-05-01 7.463 4,0401,6
1939 1939-05-04 7.303 3,6306
1940 1940-04-26 7.033 2,9506
1941 1941-07-20 6.993 2,3806
1942 1942-05-26 7.083 3,0506
1943 1943-06-02 7.703 4,2906
1944 1944-08-12 7.373 2,5106
1945 1945-06-08 7.883 4,5806
1946 1946-04-27 7.903 5,0606
1947 1947-05-04 7.643 4,1406
1948 1948-05-08 7.263 3,3706
1949 1949-05-22 7.323 3,7406
1950 1950-05-16 7.373 3,6306
1951 1951-05-07   3,3306
1952 1952-05-21 7.853 5,0406
1953 1953-06-05 7.363 3,1906
1954 1954-08-29 8.193 3,6506
1955 1955-07-19   3,4006
1956 1956-05-08   3,2406
1957 1957-05-21   5,0406
1958 1958-05-12 8.233 3,4006
1959 1959-07-11 8.343 3,3006
1960 1960-08-01 8.073 2,6806
1961 1961-08-07 8.283 2,9306
1962 1962-05-09 7.253 3,8806
1963 1963-05-09 6.893 2,8906
1964 1964-06-12 7.143 3,9606
1965 1965-05-02 7.103 4,2606
1966 1966-05-11 6.803 2,8906
1967 1967-05-30 7.303 4,4006
1968 1968-05-05 6.782,3 3,1306
1969 1969-05-08 7.332,3 4,8406
1970 1970-05-23 7.432,3 5,1406
1971 1971-05-10 7.483 5,6206
1972 1972-05-08 7.343 4,7406
1973 1973-05-08 7.233 4,1906
1974 1974-05-13 7.453 4,8606
1975 1975-06-04 7.753 6,0806
1976 1976-05-19 7.573 4,8606
1977 1977-08-06 7.873 4,0106
1978 1978-05-03 7.273 4,2806
1979 1979-05-02 7.102,3 3,6606
1980 1980-04-26 7.473 4,8306
1981 1981-04-22 5.03 3,7806
1982 1982-05-19 5.95 5,4206
1983 1983-05-26 5.69 4,9606
1984 1984-05-15 6.50 8,1406
1985 1985-05-04 5.60 5,3506
1986 1986-05-04 5.68 5,5706
1987 1987-07-01 4.96 3,8306
1988 1988-04-24 4.54 3,0706
1989 1989-05-12 5.55 5,5106
1990 1990-04-22 5.34 4,6906
1991 1991-05-18 4.79 3,4806
1992 1992-06-16   2,5701,6
1993 1993-05-04 5.59 5,3206
1994 1994-04-26 4.74 3,1206
1995 1995-05-12 5.82 6,0906
1996 1996-05-17 5.76 5,9106
1997 1997-05-12 6.02 6,6206
1998 1998-05-05 5.33 4,9006
1999 1999-06-03 5.65 5,3906
2000 2000-04-24 4.92 4,0006
2001 2001-04-28 4.40 2,9906
2002 2002-07-26   2,4601,6
2003 2003-08-05   2,5001,6
2004 2004-06-11   2,3001,6
2005 2005-05-19 4.45 3,0806
2006 2006-05-01 5.37 4,9906
2007 2007-08-29 4.62 3,0106
2008 2008-05-19 5.40 5,0606
2009 2009-05-08 4.76 3,6706
2010 2010-06-08 4.82 3,7906
2011 2011-06-08 6.31 7,2401,6
2012 2012-04-27 4.87 3,9006
2013 2013-07-31 4.41 2,4006
2014 2014-05-10 4.522 3,2106
2015 2015-07-21 4.88 2,9606
2016 2016-07-19 4.42 2,5806
2017 2017-05-07 4.71 3,5706
2018 2018-04-28 5.08 4,1406
2019 2019-04-30 4.74 3,4706
2020 2020-04-30 5.38 4,9006
?
  Peak Gage-Height Qualification Codes.
?
  Peak Streamflow Qualification Codes.